Temperature
14 12 12 13 13 10 12 14 15 17 15 16 18 17 14 10 7 4 2 2 2 2 1 -0 -1 -2 -2 -3 -3 -4 -5 -6 -6 -7 -8 -8 -9 -10 -10 -11 -11 -12 -12 -12
12 11 10 10 11 11 11 12 13 13 14 16 15 13 10 8 6 4 3 3 3 2 1 0 -1 -2 -2 -3 -3 -4 -5 -6 -6 -7 -8 -8 -9 -9 -10 -10 -11 -11 -12 -12
15 12 11 14 14 10 10 11 12 13 15 16 13 11 10 9 7 7 5 4 4 3 1 0 -1 -2 -2 -3 -3 -4 -5 -6 -6 -7 -8 -8 -9 -9 -9 -10 -10 -11 -11 -12
13 14 14 19 12 12 11 11 11 12 14 14 13 11 9 9 8 8 6 5 4 3 1 0 -1 -2 -2 -3 -3 -4 -5 -6 -6 -7 -7 -8 -8 -9 -9 -9 -10 -10 -11 -12
11 13 16 17 11 10 10 13 14 12 13 13 10 7 11 13 12 9 8 6 5 3 1 0 -1 -2 -2 -2 -3 -4 -5 -5 -6 -7 -7 -8 -8 -9 -9 -9 -10 -10 -11 -11
9 12 15 18 12 9 12 14 15 12 13 12 6 12 15 12 11 10 7 5 4 2 1 0 -1 -2 -2 -2 -3 -4 -5 -5 -6 -7 -7 -8 -8 -9 -9 -9 -9 -10 -10 -10
9 10 14 15 8 10 15 18 18 15 14 12 9 13 13 11 10 9 7 5 3 2 1 0 -1 -1 -2 -2 -3 -4 -4 -5 -6 -6 -7 -7 -8 -8 -9 -9 -9 -9 -10 -10
9 10 13 10 9 13 18 18 17 17 16 15 14 14 12 11 9 8 7 5 3 2 1 -0 -1 -1 -2 -2 -3 -4 -4 -5 -6 -6 -7 -7 -8 -8 -8 -9 -9 -10 -10 -10
11 14 14 10 13 15 15 17 17 17 16 15 14 13 12 11 9 8 7 5 3 2 1 -0 -1 -1 -2 -2 -3 -3 -4 -5 -6 -6 -6 -7 -7 -7 -8 -8 -8 -10 -11 -11
9 11 12 11 14 16 16 16 17 17 16 15 14 14 12 11 9 8 6 5 3 2 1 0 -0 -1 -2 -2 -3 -3 -4 -5 -5 -6 -6 -6 -6 -7 -7 -7 -8 -10 -10 -11
10 12 12 13 17 19 19 18 18 18 17 16 15 14 13 11 10 8 7 5 4 2 2 1 -0 -1 -2 -2 -3 -3 -4 -4 -5 -5 -5 -5 -6 -6 -6 -7 -8 -9 -10 -11
15 15 14 17 19 19 18 18 18 17 17 16 16 15 14 12 10 8 7 6 4 3 2 1 -0 -1 -2 -2 -3 -3 -4 -4 -5 -5 -5 -5 -5 -5 -6 -6 -6 -7 -8 -10
17 17 17 17 17 18 17 18 17 17 16 16 15 14 13 12 10 8 7 6 5 4 3 1 -0 -1 -1 -2 -2 -3 -4 -4 -4 -5 -5 -5 -5 -5 -5 -5 -6 -6 -7 -8
15 15 14 16 16 17 17 17 17 16 16 15 14 13 12 11 10 8 8 7 5 4 3 1 0 -0 -1 -2 -2 -3 -3 -4 -4 -5 -5 -5 -5 -5 -5 -5 -6 -6 -7 -7
14 14 14 16 16 16 16 16 15 16 16 15 14 13 12 12 11 10 8 6 5 4 2 1 0 -0 -1 -2 -2 -3 -3 -4 -4 -5 -5 -5 -5 -5 -5 -6 -6 -6 -6 -6
14 14 14 14 15 15 15 15 15 16 16 16 15 15 13 12 10 9 8 6 5 4 3 2 1 0 -1 -1 -2 -3 -3 -3 -4 -4 -5 -5 -5 -5 -6 -6 -6 -6 -7 -7
12 12 12 12 13 14 14 15 15 16 16 16 16 15 12 11 9 8 7 6 5 4 4 3 2 0 -1 -1 -2 -2 -3 -3 -4 -4 -5 -5 -5 -5 -6 -6 -6 -7 -7 -7
11 12 12 12 12 13 13 14 14 14 14 14 13 12 11 11 10 9 8 6 5 4 3 3 2 0 -1 -1 -2 -2 -3 -3 -4 -4 -5 -5 -5 -5 -6 -6 -6 -7 -7 -8
12 13 13 13 13 13 13 12 12 12 11 11 10 10 10 11 10 9 8 6 5 4 3 3 1 0 -1 -1 -2 -2 -3 -3 -4 -4 -4 -5 -5 -5 -6 -6 -7 -7 -7 -8
12 12 12 12 12 12 11 11 11 10 10 10 9 9 9 9 8 7 7 6 6 5 5 3 1 0 -1 -1 -2 -2 -2 -3 -3 -4 -4 -5 -5 -5 -6 -6 -7 -7 -7 -8
10 10 10 10 10 10 10 10 10 10 9 9 8 9 9 9 7 7 6 6 6 5 4 3 2 1 -0 -1 -2 -2 -2 -3 -3 -4 -4 -5 -5 -5 -6 -6 -7 -7 -7 -8
8 8 9 9 9 9 9 9 9 9 9 8 7 7 7 6 6 6 6 6 6 5 4 3 2 1 1 -1 -1 -2 -2 -2 -3 -4 -4 -4 -5 -5 -6 -6 -7 -7 -8 -8
7 7 8 8 8 8 9 9 9 8 8 7 6 5 5 6 5 5 6 5 4 5 5 4 3 2 0 -1 -1 -1 -2 -2 -3 -3 -4 -4 -5 -5 -6 -6 -7 -7 -8 -8
5 6 6 7 7 7 8 8 8 8 7 7 6 4 3 2 2 3 4 5 5 5 5 4 3 2 0 -0 -1 -1 -2 -2 -3 -3 -4 -4 -5 -5 -6 -6 -7 -7 -8 -8
4 5 5 5 5 6 6 7 7 7 7 6 5 3 2 1 -0 1 1 3 4 4 4 4 3 2 1 -0 -0 -1 -1 -2 -2 -3 -3 -4 -4 -5 -5 -6 -7 -7 -8 -8
3 3 3 4 4 5 5 5 6 6 6 5 4 3 1 -0 -2 -2 -1 0 2 3 4 3 2 1 0 0 -0 -1 -1 -2 -2 -3 -3 -4 -4 -5 -5 -6 -7 -7 -8 -8
2 3 3 3 3 4 4 5 5 5 5 4 3 2 1 -1 -2 -3 -2 -1 -0 0 2 3 2 1 1 0 -0 -1 -1 -2 -2 -2 -3 -3 -4 -5 -5 -6 -6 -7 -7 -8
Wind_Speed
8 4 4 8 11 15 16 14 12 13 13 20 19 16 12 8 9 12 15 17 17 15 12 11 10 8 6 4 4 4 5 6 7 8 10 10 10 11 11 11 12 13 14 15
5 4 6 9 16 19 18 15 18 21 21 23 20 12 9 9 10 14 17 18 17 15 13 12 11 9 7 5 4 4 5 6 7 8 9 10 10 11 11 12 12 13 14 15
4 2 5 12 14 19 11 14 14 16 15 11 7 10 11 10 13 16 17 18 18 16 14 13 11 10 8 6 5 5 5 6 6 7 9 10 10 11 11 11 12 13 14 15
4 3 9 6 3 13 12 12 18 18 16 15 13 10 10 12 13 15 16 17 17 15 14 12 11 10 8 6 6 5 6 6 6 7 9 10 11 11 11 11 11 12 13 15
3 5 10 6 6 9 10 10 15 21 21 18 3 7 10 12 15 14 16 16 16 15 14 13 12 11 9 8 7 6 7 6 6 7 9 10 11 11 11 11 12 12 13 14
4 5 9 5 5 7 5 7 8 15 18 11 3 7 8 4 10 12 12 13 13 14 14 13 12 11 10 9 8 8 7 7 7 7 9 10 12 12 11 11 12 12 13 13
9 9 11 2 7 9 6 5 4 11 12 10 11 10 1 5 9 12 13 14 14 15 14 13 13 12 11 9 9 7 6 7 7 8 9 10 11 11 11 11 12 12 13 13
9 9 12 8 12 11 8 1 3 7 9 11 14 9 5 7 10 13 15 15 16 15 13 12 13 13 11 11 8 7 6 7 8 8 8 8 11 11 11 11 11 12 12 13
13 11 4 13 12 9 4 5 6 6 9 11 12 12 10 10 12 14 16 16 16 15 14 13 13 13 12 10 8 8 7 7 8 8 8 8 9 11 10 9 9 10 10 11
10 15 12 13 17 15 13 14 15 12 10 10 14 13 13 12 13 15 17 17 16 16 15 14 14 14 12 9 9 8 7 7 7 7 8 8 7 8 8 8 9 10 10 11
12 11 10 14 19 23 20 20 20 19 16 16 15 15 15 14 16 16 17 17 17 17 16 16 15 14 13 11 10 9 7 6 6 6 7 7 7 7 8 8 9 11 9 10
15 10 11 11 6 9 14 18 18 17 16 16 17 17 15 15 15 17 18 18 18 18 17 16 15 15 14 13 12 10 7 6 5 5 5 5 6 7 7 8 11 11 10 11
20 9 11 14 9 9 14 17 15 15 16 15 14 15 16 15 15 17 18 20 21 20 18 16 16 15 15 14 13 11 9 6 4 4 5 5 6 7 8 7 7 7 10 12
20 11 10 15 18 17 17 17 12 12 14 14 12 13 14 15 16 19 21 21 20 19 18 17 16 16 15 15 14 12 10 8 6 5 4 5 5 5 6 7 8 7 8 11
20 17 19 22 20 16 12 10 11 15 14 14 13 15 17 18 20 21 19 18 18 18 18 17 17 16 16 16 15 13 10 7 6 5 4 4 4 5 5 6 6 7 7 8
15 15 19 21 25 26 22 18 20 23 19 17 17 19 19 19 17 17 18 20 22 22 20 19 18 17 16 16 15 12 10 11 8 5 5 4 4 4 4 5 5 6 6 7
15 20 21 21 27 28 27 24 24 24 19 18 19 17 16 17 17 18 20 21 21 20 20 20 18 16 17 17 15 11 10 10 12 7 5 5 4 4 4 4 4 5 5 6
28 30 28 24 24 26 27 23 19 18 17 13 12 14 18 21 22 22 21 20 19 18 19 19 17 17 17 17 14 11 10 9 8 7 6 5 5 4 3 3 4 5 5 5
25 26 26 25 24 23 22 20 15 12 10 10 14 18 20 21 20 19 20 21 22 22 20 19 24 20 18 19 17 11 11 10 9 7 6 7 6 5 4 4 3 4 5 5
19 19 20 20 18 16 18 17 14 12 10 13 16 17 18 19 18 19 21 21 20 17 18 21 22 18 18 19 20 12 12 11 10 8 7 7 6 5 5 4 3 3 4 4
17 17 17 17 18 18 18 16 15 15 12 14 18 19 19 18 19 20 20 19 18 16 20 27 20 17 17 18 21 13 13 12 11 9 9 8 7 6 5 5 4 3 3 3
15 16 17 17 17 18 15 12 13 13 12 14 17 16 16 17 20 21 22 15 17 23 19 18 17 21 23 23 16 14 14 13 11 10 9 8 8 7 6 5 4 4 3 3
18 16 16 15 15 14 14 12 11 11 12 13 15 16 17 16 16 18 18 15 15 26 21 18 22 30 31 21 15 15 15 14 12 11 10 9 8 7 7 6 5 4 3 3
19 17 15 13 11 12 14 13 9 8 9 10 11 12 14 13 14 15 10 19 25 27 19 22 31 34 31 17 15 15 14 14 12 11 11 9 9 8 7 6 6 5 4 4
16 15 14 13 12 12 11 9 7 7 8 8 9 10 12 12 11 12 12 17 26 28 18 24 32 34 24 16 16 16 14 13 13 12 11 11 10 9 8 7 6 6 5 4
14 15 14 12 11 11 9 8 7 6 5 6 7 7 9 10 10 10 11 15 21 25 19 17 22 25 19 17 16 16 14 14 14 13 12 11 11 10 9 8 9 7 5 5
14 12 11 13 12 10 8 7 8 8 7 7 7 7 9 10 10 12 13 14 16 18 16 16 18 20 18 17 16 15 14 13 13 13 12 11 10 10 10 10 8 7 6 5
Wind_Direction
269 264 233 236 214 196 209 222 236 252 257 272 285 298 296 275 225 200 195 194 195 195 191 191 193 194 200 221 245 268 285 298 310 316 317 314 315 319 324 326 326 325 324 325
269 243 230 255 239 220 225 234 244 259 270 268 277 281 264 245 214 204 202 199 198 196 191 191 192 191 196 213 230 254 272 286 299 308 309 309 310 316 320 323 324 323 321 320
258 185 281 265 233 201 205 214 213 229 244 259 256 253 257 246 217 214 206 199 197 195 192 189 187 185 193 204 216 240 260 275 290 300 304 307 309 313 317 319 320 319 318 319
274 261 244 252 129 183 206 229 219 236 255 263 269 287 274 250 230 218 205 198 195 191 185 180 175 178 186 195 214 235 253 266 279 291 297 304 308 312 315 316 316 314 316 319
239 251 270 263 187 178 200 256 223 229 249 263 312 307 275 232 221 216 202 194 189 182 175 170 172 176 184 199 212 229 245 258 273 283 291 299 304 310 315 314 312 311 316 319
216 232 247 257 143 158 158 272 229 211 236 245 179 281 299 165 196 200 190 181 174 167 165 169 173 175 188 202 212 226 238 254 270 280 287 295 302 310 314 314 311 315 318 320
222 240 263 270 135 150 189 255 190 201 223 204 208 239 270 161 183 185 179 172 167 165 170 174 171 178 195 205 214 221 233 254 268 278 288 296 301 306 310 311 314 316 319 322
190 213 252 162 154 195 229 326 206 214 220 217 230 236 207 196 185 180 177 173 171 172 174 172 174 184 199 209 209 209 229 253 266 276 286 291 299 305 309 313 315 320 324 326
196 215 272 172 205 229 279 259 241 229 229 223 235 234 218 206 194 188 184 178 177 177 175 176 182 191 203 203 195 201 225 249 265 276 283 288 298 305 310 316 318 321 325 330
231 253 249 224 239 250 246 249 259 252 243 223 231 234 216 204 196 191 188 183 180 181 183 186 189 197 205 193 187 199 223 245 263 275 285 294 299 301 309 316 319 322 332 334
239 257 287 260 237 243 249 252 257 256 247 238 235 233 214 204 199 193 189 186 184 188 192 191 188 196 199 194 190 202 219 239 257 268 281 293 300 304 307 308 316 325 331 332
243 224 222 250 222 222 236 248 248 248 250 237 226 229 212 207 200 193 189 186 188 193 194 191 189 193 194 193 193 199 211 227 244 265 281 294 305 308 302 307 322 333 336 337
253 245 239 267 264 234 245 254 248 240 242 241 225 219 210 205 197 193 191 190 193 193 192 189 189 192 191 189 191 197 205 214 234 256 278 296 308 315 320 323 323 334 344 345
246 254 269 265 264 260 254 254 253 249 246 238 226 210 205 202 195 195 196 195 193 189 189 189 190 194 189 186 189 196 202 211 224 242 263 281 295 304 310 319 324 330 339 345
241 230 240 260 269 268 259 252 251 253 246 235 216 204 199 199 200 200 195 188 186 187 189 189 193 194 184 185 189 192 195 200 209 227 244 262 277 288 299 308 312 320 329 342
243 235 239 250 259 264 262 250 249 256 248 232 217 211 206 204 201 195 190 185 186 191 190 191 195 190 181 183 186 190 195 200 203 215 229 245 256 270 291 307 314 320 331 339
246 251 247 248 254 259 259 254 249 252 247 231 221 208 200 198 199 196 193 192 194 194 189 190 191 181 179 183 184 186 187 193 202 210 219 231 239 251 274 294 307 316 323 329
246 252 255 254 257 261 264 262 256 251 247 239 211 198 198 199 202 199 192 188 192 195 194 190 182 176 179 182 183 182 181 183 188 198 207 216 224 233 252 274 295 307 318 326
250 254 259 262 262 264 269 273 271 262 245 210 200 207 210 210 206 195 185 184 189 195 194 185 180 176 179 183 179 180 180 182 186 193 199 208 216 221 231 250 277 300 313 324
263 266 269 273 275 274 275 277 275 263 233 207 207 210 213 212 202 192 189 194 198 194 177 176 178 178 180 182 178 179 181 184 187 189 193 201 207 210 215 229 254 280 300 317
274 276 278 280 281 279 276 273 269 263 237 209 210 213 212 204 195 190 192 202 203 182 171 175 176 177 178 178 179 180 181 184 187 190 193 197 201 204 208 215 230 253 281 304
286 286 284 283 282 284 284 277 268 261 243 225 221 217 208 201 195 197 202 203 184 176 172 177 179 178 177 175 179 180 182 184 186 188 191 194 197 200 202 206 215 230 254 284
300 293 287 284 281 283 287 282 269 261 248 235 228 221 214 206 196 195 201 201 181 178 176 179 180 178 176 175 178 180 182 184 186 188 190 192 195 197 198 201 207 216 235 260
300 296 288 284 285 285 286 287 272 262 256 249 236 224 215 211 210 208 199 183 181 179 180 180 178 177 175 176 178 180 183 185 186 187 187 188 190 193 196 198 201 208 220 240
292 290 287 283 284 286 285 285 282 270 263 257 246 227 218 216 213 206 198 184 180 177 179 181 178 178 175 175 178 181 183 185 184 182 184 186 188 190 194 196 199 202 210 224
284 289 288 277 277 281 285 281 275 268 257 255 245 227 218 217 211 198 194 187 182 179 175 175 177 179 177 176 178 180 181 183 185 186 186 185 187 188 190 194 197 200 206 216
272 274 277 283 281 269 262 258 260 257 240 234 237 221 211 208 204 196 191 186 184 182 177 177 176 178 176 175 176 177 178 180 181 182 182 185 185 187 188 189 191 193 198 207
Height
1572 1574 1575 1572 1573 1580 1576 1566 1563 1548 1546 1534 1529 1530 1531 1531 1530 1530 1531 1532 1535 1538 1541 1542 1543 1543 1543 1542 1540 1538 1535 1532 1529 1524 1519 1514 1508 1502 1497 1491 1486 1480 1475 1469
1574 1574 1577 1574 1567 1568 1569 1565 1558 1552 1544 1528 1527 1527 1526 1525 1524 1523 1523 1525 1529 1532 1535 1537 1538 1538 1538 1537 1536 1534 1532 1529 1526 1522 1517 1512 1506 1500 1495 1489 1484 1478 1472 1467
1566 1571 1571 1557 1542 1554 1556 1549 1547 1543 1529 1521 1523 1522 1521 1519 1517 1516 1517 1519 1522 1526 1529 1531 1533 1533 1533 1533 1532 1530 1528 1526 1523 1519 1515 1510 1504 1498 1493 1487 1481 1476 1470 1464
1568 1565 1564 1527 1535 1537 1541 1536 1535 1528 1521 1519 1519 1517 1514 1512 1511 1510 1511 1513 1516 1520 1524 1526 1528 1528 1529 1528 1528 1527 1525 1523 1520 1517 1512 1507 1502 1496 1491 1485 1479 1474 1468 1463
1572 1561 1542 1527 1533 1535 1536 1527 1519 1521 1517 1514 1514 1513 1507 1505 1504 1504 1506 1509 1512 1515 1518 1521 1523 1524 1524 1524 1523 1523 1521 1519 1517 1514 1509 1505 1500 1494 1489 1483 1478 1472 1467 1462
1576 1565 1548 1518 1525 1527 1530 1524 1509 1512 1510 1510 1513 1511 1502 1501 1500 1500 1502 1504 1507 1510 1513 1515 1517 1519 1519 1519 1519 1519 1517 1516 1514 1510 1507 1502 1497 1492 1487 1482 1476 1471 1466 1461
1569 1562 1536 1519 1525 1529 1528 1512 1505 1504 1504 1505 1505 1502 1499 1496 1496 1497 1498 1500 1502 1505 1507 1510 1512 1513 1514 1515 1515 1515 1514 1512 1510 1507 1504 1500 1495 1490 1485 1480 1475 1470 1465 1460
1558 1557 1536 1521 1523 1519 1506 1502 1501 1500 1500 1499 1497 1495 1493 1491 1491 1491 1492 1494 1496 1499 1502 1504 1506 1508 1509 1510 1510 1510 1510 1509 1507 1504 1501 1497 1493 1488 1483 1478 1472 1467 1462 1458
1532 1521 1511 1509 1505 1502 1501 1499 1497 1496 1494 1493 1490 1487 1486 1485 1484 1485 1486 1488 1490 1493 1496 1498 1500 1502 1504 1505 1506 1506 1505 1505 1503 1501 1498 1494 1490 1486 1481 1476 1470 1465 1461 1456
1523 1509 1503 1502 1500 1498 1497 1494 1491 1489 1487 1484 1481 1479 1477 1477 1477 1477 1479 1481 1484 1487 1489 1492 1494 1497 1499 1500 1501 1501 1501 1500 1499 1497 1495 1492 1488 1484 1479 1473 1467 1463 1460 1455
1510 1500 1498 1492 1491 1489 1488 1487 1484 1481 1478 1475 1473 1470 1469 1468 1468 1469 1471 1473 1476 1479 1482 1486 1489 1491 1493 1494 1496 1496 1497 1496 1495 1494 1492 1489 1486 1482 1477 1472 1467 1462 1458 1454
1491 1488 1489 1482 1484 1484 1481 1477 1475 1472 1469 1466 1464 1462 1460 1459 1460 1461 1463 1465 1468 1471 1475 1479 1482 1485 1487 1488 1490 1491 1492 1492 1491 1490 1489 1487 1484 1481 1477 1472 1467 1462 1457 1453
1479 1480 1479 1475 1475 1475 1472 1467 1465 1462 1459 1457 1455 1454 1452 1451 1451 1452 1454 1457 1459 1463 1468 1472 1475 1478 1480 1482 1484 1486 1487 1487 1487 1487 1486 1484 1482 1479 1476 1472 1467 1462 1457 1452
1471 1473 1471 1467 1466 1464 1461 1457 1455 1452 1449 1447 1445 1444 1442 1442 1441 1442 1444 1448 1452 1456 1460 1464 1467 1471 1474 1476 1478 1480 1482 1483 1483 1483 1482 1481 1479 1477 1474 1470 1466 1462 1457 1451
1462 1463 1461 1458 1455 1453 1450 1446 1443 1439 1437 1434 1433 1432 1431 1430 1430 1431 1436 1440 1444 1448 1452 1456 1459 1463 1466 1469 1472 1474 1476 1477 1478 1478 1478 1477 1476 1474 1472 1469 1465 1461 1456 1451
1452 1452 1450 1447 1442 1438 1435 1432 1428 1423 1422 1420 1419 1417 1418 1419 1420 1422 1426 1429 1432 1436 1441 1446 1450 1456 1459 1462 1465 1468 1470 1472 1473 1474 1474 1474 1473 1472 1470 1467 1464 1460 1456 1451
1443 1438 1436 1432 1427 1422 1418 1414 1411 1408 1407 1406 1404 1405 1407 1407 1408 1409 1412 1417 1423 1428 1433 1438 1443 1448 1452 1455 1459 1462 1465 1467 1468 1469 1470 1470 1470 1469 1467 1465 1462 1459 1455 1450
1425 1421 1419 1418 1414 1409 1404 1401 1399 1397 1395 1395 1396 1395 1395 1394 1394 1396 1401 1407 1413 1418 1423 1429 1435 1440 1444 1448 1452 1456 1458 1461 1463 1464 1465 1466 1466 1466 1465 1463 1460 1458 1454 1450
1412 1410 1408 1406 1403 1400 1395 1391 1389 1388 1386 1385 1383 1382 1382 1383 1384 1386 1391 1395 1399 1403 1410 1418 1425 1431 1436 1441 1445 1449 1452 1455 1457 1459 1461 1462 1462 1462 1462 1460 1458 1456 1453 1449
1406 1404 1401 1398 1395 1392 1387 1382 1380 1377 1374 1372 1370 1369 1369 1370 1372 1374 1377 1380 1384 1392 1400 1408 1415 1421 1427 1433 1437 1442 1445 1448 1451 1453 1455 1457 1458 1458 1458 1457 1456 1454 1451 1448
1399 1396 1392 1388 1384 1381 1377 1373 1369 1365 1362 1359 1356 1354 1354 1356 1358 1361 1364 1368 1376 1386 1392 1399 1406 1412 1418 1424 1429 1434 1438 1442 1445 1447 1450 1452 1453 1454 1454 1454 1453 1451 1449 1447
1392 1388 1383 1379 1375 1371 1367 1363 1359 1355 1351 1347 1344 1342 1342 1342 1343 1346 1350 1357 1365 1374 1380 1388 1395 1403 1410 1416 1421 1426 1431 1435 1438 1441 1444 1446 1448 1449 1450 1450 1450 1448 1447 1445
1386 1381 1376 1372 1367 1362 1358 1354 1350 1346 1341 1337 1335 1333 1331 1330 1331 1334 1336 1345 1354 1362 1370 1378 1386 1394 1402 1408 1413 1418 1423 1428 1431 1434 1437 1440 1443 1444 1445 1446 1446 1445 1444 1442
1378 1373 1369 1364 1359 1353 1349 1345 1341 1337 1333 1329 1326 1325 1324 1324 1323 1325 1329 1335 1343 1351 1360 1369 1378 1386 1393 1398 1405 1410 1416 1420 1424 1428 1431 1434 1437 1439 1441 1441 1442 1441 1441 1439
1369 1364 1360 1355 1350 1345 1341 1337 1333 1329 1325 1321 1318 1316 1316 1316 1318 1319 1323 1327 1333 1342 1351 1361 1369 1377 1383 1389 1396 1402 1408 1413 1417 1421 1425 1428 1431 1433 1435 1437 1437 1437 1437 1436
1358 1355 1351 1346 1342 1338 1334 1330 1326 1322 1319 1315 1312 1310 1309 1309 1311 1314 1317 1322 1326 1333 1342 1351 1358 1366 1373 1380 1388 1395 1401 1406 1411 1415 1418 1422 1425 1428 1430 1432 1433 1433 1433 1433
1344 1342 1340 1336 1333 1330 1327 1323 1320 1317 1313 1310 1306 1304 1303 1303 1304 1307 1311 1315 1320 1326 1333 1341 1349 1356 1363 1372 1380 1387 1393 1399 1403 1408 1412 1415 1419 1422 1424 1426 1428 1429 1429 1429